Regional Weather Roundup
Issued by NWS

Home | Current Version | Previous Version | Graphics & Text | Print | Product List | Glossary On
Versions: 1 2 3 4 5 6 7 8 9 10 11 12 13 14 15 16 17 18 19 20 21 22 23 24 25 26 27
000
ASUS45 KCYS 191910
RWRWY

WYOMING REGIONAL WEATHER ROUNDUP
NATIONAL WEATHER SERVICE CHEYENNE WY
1200 PM MST FRI JAN 19 2018

NOTE:  "FAIR" INDICATES FEW OR NO CLOUDS BELOW 12,000 FEET
WITH NO SIGNIFICANT WEATHER AND/OR OBSTRUCTIONS TO VISIBILITY.

WYZ001-192000-
YELLOWSTONE NATIONAL PARK

CITY           SKY/WX    TMP DP  RH WIND       PRES   REMARKS
LK YELLOWSTONE   N/A     27  25  92 VRB7G17   29.75F WCI  19
W YELLOWSTONE  NOT AVBL

$$
WYZ002>013-054>058-071-098>099-192000-
NORTHERN WYOMING

CITY           SKY/WX    TMP DP  RH WIND       PRES   REMARKS
JACKSON        LGT SNOW  34  30  86 S16       29.77F FOG     WCI  23
CODY           CLOUDY    37  34  89 W3        29.72R
GREYBULL       CLOUDY    35  29  78 SE6       29.68F WCI  30
WORLAND        FAIR      38  31  76 CALM      29.69F
SHERIDAN       CLOUDY    41  35  79 CALM      29.71F
BUFFALO        CLOUDY    39  32  76 S3        29.72F
GILLETTE       FAIR      39  31  72 CALM      29.71F
HULETT         FAIR      37  32  81 NW5       29.70F WCI  34
NEWCASTLE      FAIR      37  28  70 NW6       29.69F WCI  33

$$
WYZ014>020-022>026-101>103-192000-
CENTRAL WYOMING

CITY           SKY/WX    TMP DP  RH WIND       PRES   REMARKS
BIG PINEY      PTSUNNY   43  31  62 W10       29.77F
PINEDALE       CLOUDY    34  27  75 E6        29.78F WCI  29
DUBOIS         LGT SNOW  32  28  86 NW14G21   29.70F WCI  22
LANDER         FAIR      49  30  48 SW17G28   29.65F
RIVERTON       FAIR      45  27  49 S22       29.65F
CASPER         FAIR      48  22  35 SW26G32   29.70F
DOUGLAS        FAIR      51  25  36 W13       29.69F

$$
WYZ021-027>030-104>119-192000-
SOUTHERN WYOMING

CITY           SKY/WX    TMP DP  RH WIND       PRES   REMARKS
EVANSTON       CLOUDY    44  29  55 SW21G36   29.82F
FORT BRIDGER   FAIR      51  25  36 SW24G40   29.82F
ROCK SPRINGS   FAIR      49  22  34 SW12      29.79F
DIXON            N/A     46  16  30 SW12G20   29.91F
RAWLINS        LGT RAIN  45  20  36 SW28G41   29.80F
SARATOGA       FAIR      50  19  29 SW30G41   29.84F
LARAMIE        FAIR      53  19  26 SW24G32   29.81F
CHEYENNE       FAIR      54  21  27 W16       29.77F
TORRINGTON     FAIR      46  28  49 CALM      29.69F

$$




USA.gov is the U.S. government's official web portal to all federal, state and local government web resources and services.